Terminal Aerodrome Forecast
Issued by NWS

Home | Current Version | Previous Version | Text Only | Print | Product List | Glossary On
Versions: 1 2 3 4 5 6 7 8 9 10 11 12 13 14 15 16
000
FTUS41 KBGM 241738
TAFITH
TAF
KITH 241738Z 2418/2518 26008KT P6SM SCT250
     FM250000 15005KT P6SM SCT120 BKN200
     FM250600 12004KT P6SM OVC090
     FM251400 19009KT P6SM OVC100=

USA.gov is the U.S. government's official web portal to all federal, state and local government web resources and services.